QPF
0.00 0.00 0.00 0.00 0.00 0.00 0.00 0.00 0.00 0.00 0.00 0.00 0.00 0.00 0.00 0.00 0.00 0.00 0.00 0.00 0.00 0.00 0.00 0.00 0.00 0.00 0.00 0.00 0.00 0.00 0.00 0.00 0.00 0.00 0.00 0.00 0.00 0.00 0.00 0.00 0.00 0.00 0.00 0.00 0.00 0.00 0.00 0.00 0.00 0.00 0.00 0.00 0.00 0.00 0.00 0.00 0.00 0.00 0.00 0.00 0.00 0.00 0.00 0.00 0.00 0.00 0.00 0.00 0.00
0.00 0.00 0.00 0.00 0.00 0.00 0.00 0.00 0.00 0.00 0.00 0.00 0.00 0.00 0.00 0.00 0.00 0.00 0.00 0.00 0.00 0.00 0.00 0.00 0.00 0.00 0.00 0.00 0.00 0.00 0.00 0.00 0.00 0.00 0.00 0.00 0.00 0.00 0.00 0.00 0.00 0.00 0.00 0.00 0.00 0.00 0.00 0.00 0.00 0.00 0.00 0.00 0.00 0.00 0.00 0.00 0.00 0.00 0.00 0.00 0.00 0.00 0.00 0.00 0.00 0.00 0.00 0.00 0.00
0.00 0.00 0.00 0.00 0.00 0.00 0.00 0.00 0.00 0.00 0.00 0.00 0.00 0.00 0.00 0.00 0.00 0.00 0.00 0.00 0.00 0.00 0.00 0.00 0.00 0.00 0.00 0.00 0.00 0.00 0.00 0.00 0.00 0.00 0.00 0.00 0.00 0.00 0.00 0.00 0.00 0.00 0.00 0.00 0.00 0.00 0.00 0.00 0.00 0.00 0.00 0.00 0.00 0.00 0.00 0.00 0.00 0.00 0.00 0.00 0.00 0.00 0.00 0.00 0.00 0.00 0.00 0.00 0.00
0.00 0.00 0.00 0.00 0.00 0.00 0.00 0.00 0.00 0.00 0.00 0.00 0.00 0.00 0.00 0.00 0.00 0.00 0.00 0.00 0.00 0.00 0.00 0.00 0.00 0.00 0.00 0.00 0.00 0.00 0.00 0.00 0.00 0.00 0.00 0.00 0.00 0.00 0.00 0.00 0.00 0.00 0.00 0.00 0.00 0.00 0.00 0.00 0.00 0.00 0.00 0.00 0.00 0.00 0.00 0.00 0.00 0.00 0.00 0.01 0.00 0.00 0.00 0.00 0.00 0.00 0.00 0.00 0.00
0.00 0.00 0.00 0.00 0.00 0.00 0.00 0.00 0.00 0.00 0.00 0.00 0.00 0.00 0.00 0.00 0.00 0.00 0.00 0.00 0.00 0.00 0.00 0.00 0.00 0.00 0.00 0.00 0.00 0.00 0.00 0.00 0.00 0.00 0.00 0.00 0.00 0.00 0.00 0.00 0.00 0.00 0.00 0.00 0.00 0.00 0.00 0.00 0.00 0.00 0.00 0.00 0.00 0.00 0.00 0.00 0.00 0.01 0.01 0.01 0.01 0.01 0.01 0.01 0.00 0.00 0.00 0.00 0.00
0.00 0.00 0.00 0.00 0.00 0.00 0.00 0.00 0.00 0.00 0.00 0.00 0.00 0.00 0.00 0.00 0.00 0.00 0.00 0.00 0.00 0.00 0.00 0.00 0.00 0.00 0.00 0.00 0.00 0.00 0.00 0.00 0.00 0.00 0.00 0.00 0.00 0.00 0.00 0.00 0.00 0.00 0.00 0.00 0.00 0.00 0.00 0.00 0.00 0.00 0.00 0.00 0.00 0.00 0.00 0.00 0.00 0.00 0.01 0.01 0.00 0.00 0.00 0.00 0.00 0.00 0.00 0.00 0.00
0.00 0.00 0.00 0.00 0.00 0.00 0.00 0.00 0.00 0.00 0.00 0.00 0.00 0.00 0.00 0.00 0.00 0.00 0.00 0.00 0.00 0.00 0.00 0.00 0.00 0.00 0.00 0.00 0.00 0.00 0.00 0.00 0.00 0.00 0.00 0.00 0.00 0.00 0.00 0.00 0.00 0.00 0.00 0.00 0.00 0.00 0.00 0.00 0.00 0.00 0.00 0.00 0.00 0.00 0.00 0.00 0.00 0.00 0.01 0.00 0.00 0.00 0.00 0.00 0.00 0.00 0.00 0.00 0.01
0.00 0.00 0.00 0.00 0.00 0.00 0.00 0.00 0.00 0.00 0.00 0.00 0.00 0.00 0.00 0.00 0.00 0.00 0.00 0.00 0.00 0.00 0.00 0.00 0.00 0.00 0.00 0.00 0.00 0.00 0.00 0.00 0.00 0.00 0.00 0.00 0.00 0.00 0.00 0.00 0.00 0.00 0.00 0.00 0.00 0.00 0.00 0.00 0.00 0.00 0.00 0.00 0.00 0.01 0.01 0.01 0.01 0.01 0.00 0.00 0.00 0.01 0.01 0.01 0.01 0.01 0.01 0.01 0.02
0.00 0.00 0.00 0.00 0.00 0.00 0.00 0.00 0.00 0.00 0.00 0.00 0.00 0.00 0.00 0.00 0.00 0.00 0.00 0.00 0.00 0.00 0.00 0.00 0.00 0.00 0.00 0.00 0.00 0.00 0.00 0.00 0.00 0.00 0.00 0.00 0.00 0.00 0.00 0.00 0.00 0.00 0.00 0.00 0.00 0.00 0.00 0.00 0.00 0.00 0.00 0.00 0.01 0.01 0.01 0.01 0.01 0.01 0.01 0.01 0.01 0.01 0.01 0.01 0.01 0.01 0.01 0.00 0.01
0.00 0.00 0.00 0.00 0.00 0.00 0.00 0.00 0.00 0.00 0.00 0.00 0.00 0.00 0.00 0.00 0.00 0.00 0.00 0.00 0.00 0.00 0.00 0.00 0.00 0.00 0.00 0.00 0.00 0.00 0.00 0.00 0.00 0.00 0.00 0.00 0.00 0.00 0.00 0.00 0.00 0.00 0.00 0.00 0.00 0.00 0.00 0.00 0.00 0.00 0.00 0.00 0.00 0.00 0.00 0.00 0.01 0.01 0.01 0.01 0.01 0.01 0.00 0.00 0.00 0.00 0.00 0.00 0.00
0.00 0.00 0.00 0.00 0.00 0.00 0.00 0.00 0.00 0.00 0.00 0.00 0.00 0.00 0.00 0.00 0.00 0.00 0.00 0.00 0.00 0.00 0.00 0.00 0.00 0.00 0.00 0.00 0.00 0.00 0.00 0.00 0.00 0.00 0.00 0.00 0.00 0.00 0.00 0.00 0.00 0.00 0.00 0.00 0.00 0.00 0.00 0.00 0.00 0.00 0.00 0.00 0.00 0.00 0.00 0.01 0.01 0.01 0.01 0.01 0.01 0.01 0.00 0.00 0.00 0.00 0.00 0.01 0.01
0.00 0.00 0.00 0.00 0.00 0.00 0.00 0.00 0.00 0.00 0.00 0.00 0.00 0.00 0.00 0.00 0.00 0.00 0.00 0.00 0.00 0.00 0.00 0.00 0.00 0.00 0.00 0.00 0.00 0.00 0.00 0.00 0.00 0.00 0.00 0.00 0.00 0.00 0.00 0.00 0.00 0.00 0.00 0.00 0.00 0.00 0.00 0.00 0.00 0.00 0.00 0.00 0.00 0.00 0.01 0.01 0.01 0.01 0.01 0.01 0.01 0.02 0.02 0.01 0.01 0.01 0.01 0.01 0.01
0.00 0.00 0.00 0.00 0.00 0.00 0.00 0.00 0.00 0.00 0.00 0.00 0.00 0.00 0.00 0.00 0.00 0.00 0.00 0.00 0.00 0.00 0.00 0.00 0.00 0.00 0.00 0.00 0.00 0.00 0.00 0.00 0.00 0.00 0.00 0.00 0.00 0.00 0.00 0.00 0.00 0.00 0.00 0.00 0.00 0.00 0.00 0.00 0.00 0.00 0.00 0.00 0.00 0.00 0.00 0.00 0.00 0.01 0.01 0.01 0.01 0.02 0.02 0.02 0.01 0.01 0.01 0.01 0.01
0.00 0.00 0.00 0.00 0.00 0.00 0.00 0.00 0.00 0.00 0.00 0.00 0.00 0.00 0.00 0.00 0.00 0.00 0.00 0.00 0.00 0.00 0.00 0.00 0.00 0.00 0.00 0.00 0.00 0.00 0.00 0.00 0.00 0.00 0.00 0.00 0.00 0.00 0.00 0.00 0.00 0.00 0.00 0.00 0.00 0.00 0.00 0.00 0.00 0.00 0.00 0.00 0.00 0.00 0.00 0.00 0.00 0.00 0.01 0.01 0.01 0.01 0.01 0.01 0.02 0.01 0.01 0.01 0.01
0.00 0.00 0.00 0.00 0.00 0.00 0.00 0.00 0.00 0.00 0.00 0.00 0.00 0.00 0.00 0.00 0.00 0.00 0.00 0.00 0.00 0.00 0.00 0.00 0.00 0.00 0.00 0.00 0.00 0.00 0.00 0.00 0.00 0.00 0.00 0.00 0.00 0.00 0.00 0.00 0.00 0.00 0.00 0.00 0.00 0.00 0.00 0.00 0.00 0.00 0.00 0.00 0.00 0.00 0.00 0.00 0.00 0.01 0.01 0.01 0.02 0.02 0.02 0.02 0.02 0.01 0.01 0.01 0.01
0.00 0.00 0.00 0.00 0.00 0.00 0.00 0.00 0.00 0.00 0.00 0.00 0.00 0.00 0.00 0.00 0.00 0.00 0.00 0.00 0.00 0.00 0.00 0.00 0.00 0.00 0.00 0.00 0.00 0.00 0.00 0.00 0.00 0.00 0.00 0.00 0.00 0.00 0.00 0.00 0.00 0.00 0.00 0.00 0.00 0.00 0.00 0.00 0.00 0.00 0.00 0.00 0.00 0.00 0.00 0.00 0.01 0.01 0.01 0.02 0.02 0.02 0.02 0.01 0.02 0.02 0.02 0.03 0.03
0.00 0.00 0.00 0.00 0.00 0.00 0.00 0.00 0.00 0.00 0.00 0.00 0.00 0.00 0.00 0.00 0.00 0.00 0.00 0.00 0.00 0.00 0.00 0.00 0.00 0.00 0.00 0.00 0.00 0.00 0.00 0.00 0.00 0.00 0.00 0.00 0.00 0.00 0.00 0.00 0.00 0.00 0.00 0.00 0.00 0.00 0.00 0.00 0.00 0.00 0.00 0.00 0.00 0.00 0.00 0.01 0.01 0.01 0.01 0.01 0.01 0.01 0.01 0.01 0.02 0.03 0.04 0.04 0.04
0.00 0.00 0.00 0.00 0.00 0.00 0.00 0.00 0.01 0.00 0.00 0.00 0.00 0.00 0.00 0.00 0.00 0.00 0.00 0.00 0.00 0.00 0.00 0.00 0.00 0.00 0.00 0.00 0.00 0.00 0.00 0.00 0.00 0.00 0.00 0.00 0.00 0.00 0.00 0.00 0.00 0.00 0.00 0.00 0.00 0.00 0.00 0.00 0.00 0.00 0.00 0.00 0.00 0.00 0.00 0.00 0.01 0.01 0.01 0.01 0.01 0.01 0.01 0.02 0.03 0.03 0.03 0.03 0.03
0.00 0.00 0.00 0.00 0.00 0.00 0.00 0.00 0.00 0.00 0.00 0.00 0.00 0.00 0.00 0.00 0.00 0.00 0.00 0.00 0.00 0.00 0.00 0.00 0.00 0.00 0.00 0.00 0.00 0.00 0.00 0.00 0.00 0.00 0.00 0.00 0.00 0.00 0.00 0.00 0.00 0.00 0.00 0.00 0.00 0.00 0.00 0.00 0.00 0.00 0.00 0.00 0.00 0.00 0.00 0.01 0.01 0.01 0.01 0.02 0.02 0.02 0.02 0.02 0.03 0.03 0.03 0.03 0.03
0.00 0.00 0.00 0.00 0.00 0.00 0.00 0.00 0.00 0.00 0.00 0.00 0.00 0.00 0.01 0.00 0.00 0.00 0.00 0.00 0.00 0.00 0.00 0.00 0.00 0.00 0.00 0.00 0.00 0.00 0.00 0.00 0.00 0.00 0.00 0.00 0.00 0.00 0.00 0.00 0.00 0.00 0.00 0.00 0.00 0.00 0.00 0.00 0.00 0.00 0.00 0.00 0.00 0.00 0.01 0.01 0.02 0.02 0.02 0.02 0.03 0.03 0.02 0.01 0.02 0.02 0.03 0.03 0.03
0.00 0.00 0.00 0.00 0.00 0.00 0.00 0.00 0.00 0.00 0.01 0.01 0.01 0.01 0.00 0.00 0.00 0.00 0.00 0.00 0.00 0.00 0.00 0.00 0.00 0.00 0.00 0.00 0.00 0.00 0.00 0.00 0.00 0.00 0.00 0.00 0.00 0.00 0.00 0.00 0.00 0.00 0.00 0.00 0.00 0.00 0.00 0.00 0.00 0.00 0.00 0.00 0.00 0.01 0.01 0.01 0.01 0.02 0.02 0.02 0.01 0.01 0.01 0.00 0.00 0.01 0.01 0.01 0.01
0.00 0.00 0.00 0.00 0.00 0.00 0.00 0.00 0.01 0.01 0.01 0.01 0.01 0.00 0.00 0.00 0.00 0.00 0.00 0.00 0.00 0.00 0.00 0.00 0.00 0.00 0.00 0.00 0.00 0.00 0.00 0.00 0.00 0.00 0.00 0.00 0.00 0.00 0.00 0.00 0.00 0.00 0.00 0.00 0.00 0.00 0.00 0.00 0.00 0.00 0.00 0.00 0.00 0.00 0.00 0.01 0.01 0.01 0.01 0.01 0.01 0.00 0.00 0.00 0.00 0.00 0.00 0.00 0.00
0.00 0.00 0.00 0.00 0.00 0.00 0.00 0.01 0.01 0.01 0.01 0.00 0.00 0.00 0.00 0.00 0.00 0.00 0.00 0.00 0.00 0.00 0.00 0.00 0.00 0.00 0.00 0.00 0.00 0.00 0.00 0.00 0.00 0.00 0.00 0.00 0.00 0.00 0.00 0.00 0.00 0.00 0.00 0.00 0.00 0.00 0.00 0.00 0.00 0.00 0.00 0.00 0.00 0.00 0.00 0.00 0.00 0.00 0.00 0.01 0.00 0.00 0.01 0.00 0.00 0.00 0.00 0.00 0.00
0.00 0.00 0.00 0.00 0.01 0.01 0.01 0.01 0.01 0.00 0.00 0.00 0.00 0.00 0.00 0.00 0.00 0.00 0.00 0.00 0.00 0.00 0.00 0.00 0.00 0.00 0.00 0.00 0.00 0.00 0.00 0.00 0.00 0.00 0.00 0.00 0.00 0.00 0.00 0.00 0.00 0.00 0.00 0.00 0.00 0.00 0.00 0.00 0.00 0.00 0.00 0.00 0.00 0.00 0.00 0.00 0.00 0.00 0.01 0.01 0.01 0.01 0.01 0.01 0.01 0.01 0.01 0.01 0.00
0.00 0.00 0.01 0.01 0.00 0.01 0.01 0.01 0.00 0.00 0.00 0.01 0.01 0.01 0.01 0.01 0.01 0.01 0.00 0.00 0.00 0.00 0.00 0.00 0.00 0.00 0.00 0.00 0.00 0.00 0.00 0.00 0.00 0.00 0.00 0.00 0.00 0.00 0.00 0.00 0.00 0.00 0.00 0.00 0.00 0.00 0.00 0.00 0.00 0.00 0.00 0.00 0.00 0.00 0.00 0.00 0.00 0.01 0.01 0.01 0.01 0.01 0.01 0.01 0.01 0.01 0.01 0.01 0.01
0.00 0.00 0.01 0.01 0.01 0.01 0.01 0.00 0.00 0.00 0.01 0.01 0.01 0.01 0.01 0.01 0.01 0.01 0.01 0.01 0.00 0.00 0.00 0.00 0.00 0.00 0.00 0.00 0.00 0.00 0.00 0.00 0.00 0.00 0.00 0.00 0.00 0.00 0.00 0.00 0.00 0.00 0.00 0.00 0.00 0.00 0.00 0.00 0.00 0.00 0.00 0.00 0.00 0.00 0.00 0.00 0.00 0.00 0.01 0.01 0.01 0.01 0.01 0.01 0.01 0.01 0.01 0.01 0.01
0.00 0.00 0.00 0.00 0.00 0.00 0.00 0.01 0.01 0.01 0.01 0.01 0.01 0.01 0.01 0.01 0.01 0.01 0.01 0.01 0.00 0.00 0.00 0.00 0.00 0.00 0.00 0.00 0.00 0.00 0.00 0.00 0.00 0.00 0.00 0.00 0.00 0.00 0.00 0.00 0.00 0.00 0.00 0.00 0.00 0.00 0.00 0.00 0.00 0.00 0.00 0.00 0.00 0.00 0.00 0.00 0.00 0.00 0.01 0.01 0.01 0.01 0.01 0.01 0.01 0.01 0.01 0.01 0.01
0.00 0.00 0.00 0.00 0.00 0.01 0.01 0.01 0.01 0.01 0.01 0.01 0.01 0.01 0.01 0.01 0.01 0.01 0.01 0.01 0.00 0.00 0.00 0.00 0.00 0.00 0.00 0.00 0.00 0.00 0.00 0.00 0.00 0.00 0.00 0.00 0.00 0.00 0.00 0.00 0.00 0.00 0.00 0.00 0.00 0.00 0.00 0.00 0.00 0.00 0.00 0.00 0.00 0.00 0.00 0.00 0.00 0.00 0.00 0.01 0.01 0.01 0.01 0.01 0.01 0.01 0.01 0.01 0.01
0.00 0.00 0.00 0.00 0.01 0.01 0.01 0.01 0.01 0.01 0.01 0.01 0.01 0.01 0.01 0.01 0.01 0.01 0.01 0.00 0.00 0.00 0.00 0.00 0.00 0.00 0.00 0.00 0.00 0.00 0.00 0.00 0.00 0.00 0.00 0.00 0.00 0.00 0.00 0.00 0.00 0.00 0.00 0.00 0.00 0.00 0.00 0.00 0.00 0.00 0.00 0.00 0.00 0.00 0.00 0.00 0.00 0.00 0.00 0.01 0.01 0.01 0.01 0.01 0.01 0.01 0.01 0.01 0.01
0.00 0.00 0.00 0.01 0.01 0.01 0.01 0.01 0.01 0.01 0.01 0.01 0.01 0.01 0.01 0.01 0.01 0.01 0.01 0.00 0.00 0.00 0.00 0.00 0.00 0.00 0.00 0.00 0.00 0.00 0.00 0.00 0.00 0.00 0.00 0.00 0.00 0.00 0.00 0.00 0.00 0.00 0.00 0.00 0.00 0.00 0.00 0.00 0.00 0.00 0.00 0.00 0.00 0.00 0.00 0.00 0.00 0.00 0.00 0.01 0.01 0.01 0.01 0.01 0.01 0.01 0.01 0.01 0.01
0.00 0.00 0.01 0.01 0.01 0.01 0.01 0.01 0.01 0.01 0.01 0.01 0.01 0.01 0.01 0.01 0.01 0.00 0.00 0.00 0.00 0.00 0.00 0.00 0.00 0.00 0.00 0.00 0.00 0.00 0.00 0.00 0.00 0.00 0.00 0.00 0.00 0.00 0.00 0.00 0.00 0.00 0.00 0.00 0.00 0.00 0.00 0.00 0.00 0.00 0.00 0.00 0.00 0.00 0.00 0.00 0.00 0.00 0.00 0.01 0.01 0.01 0.01 0.01 0.01 0.01 0.01 0.01 0.01
0.00 0.00 0.01 0.01 0.01 0.01 0.01 0.01 0.01 0.01 0.01 0.01 0.01 0.01 0.01 0.00 0.00 0.00 0.00 0.00 0.00 0.00 0.00 0.00 0.00 0.00 0.00 0.00 0.00 0.00 0.00 0.00 0.00 0.00 0.00 0.00 0.00 0.00 0.00 0.00 0.00 0.00 0.00 0.00 0.00 0.00 0.00 0.00 0.00 0.00 0.00 0.00 0.00 0.00 0.00 0.00 0.00 0.00 0.00 0.00 0.00 0.01 0.01 0.01 0.01 0.01 0.01 0.01 0.01
0.01 0.01 0.01 0.01 0.01 0.01 0.00 0.00 0.00 0.00 0.01 0.00 0.00 0.00 0.00 0.00 0.00 0.00 0.00 0.00 0.00 0.00 0.00 0.00 0.00 0.00 0.00 0.00 0.00 0.00 0.00 0.00 0.00 0.00 0.00 0.00 0.00 0.00 0.00 0.00 0.00 0.00 0.00 0.00 0.00 0.00 0.00 0.00 0.00 0.00 0.00 0.00 0.00 0.00 0.00 0.00 0.00 0.00 0.00 0.00 0.00 0.00 0.01 0.01 0.01 0.01 0.01 0.01 0.01
0.00 0.00 0.00 0.00 0.00 0.00 0.00 0.00 0.00 0.00 0.00 0.00 0.00 0.00 0.00 0.00 0.00 0.00 0.00 0.00 0.00 0.00 0.00 0.00 0.00 0.00 0.00 0.00 0.00 0.00 0.00 0.00 0.00 0.00 0.00 0.00 0.00 0.00 0.00 0.00 0.00 0.00 0.00 0.00 0.00 0.00 0.00 0.00 0.00 0.00 0.00 0.00 0.00 0.00 0.00 0.00 0.00 0.00 0.00 0.00 0.00 0.00 0.00 0.00 0.00 0.00 0.00 0.01 0.01
0.00 0.00 0.00 0.00 0.00 0.00 0.00 0.00 0.00 0.00 0.00 0.00 0.00 0.00 0.00 0.00 0.00 0.00 0.00 0.00 0.00 0.00 0.00 0.00 0.00 0.00 0.00 0.00 0.00 0.00 0.00 0.00 0.00 0.00 0.00 0.00 0.00 0.00 0.00 0.00 0.00 0.00 0.00 0.00 0.00 0.00 0.00 0.00 0.00 0.00 0.00 0.00 0.00 0.00 0.00 0.00 0.00 0.00 0.00 0.00 0.00 0.00 0.00 0.00 0.00 0.00 0.01 0.01 0.01
0.00 0.00 0.00 0.00 0.00 0.00 0.00 0.00 0.00 0.00 0.00 0.00 0.00 0.00 0.00 0.00 0.00 0.00 0.00 0.00 0.00 0.00 0.00 0.00 0.00 0.00 0.00 0.00 0.00 0.00 0.00 0.00 0.00 0.00 0.00 0.00 0.00 0.00 0.00 0.00 0.00 0.00 0.00 0.00 0.00 0.00 0.00 0.00 0.00 0.00 0.00 0.00 0.00 0.00 0.00 0.00 0.00 0.00 0.00 0.00 0.00 0.00 0.00 0.00 0.00 0.00 0.00 0.00 0.00
0.00 0.00 0.00 0.00 0.00 0.00 0.00 0.00 0.00 0.00 0.00 0.00 0.00 0.00 0.00 0.00 0.00 0.00 0.00 0.00 0.00 0.00 0.00 0.00 0.00 0.00 0.00 0.00 0.00 0.00 0.00 0.00 0.00 0.00 0.00 0.00 0.00 0.00 0.00 0.00 0.00 0.00 0.00 0.00 0.00 0.00 0.00 0.00 0.00 0.00 0.00 0.00 0.00 0.00 0.00 0.00 0.00 0.00 0.00 0.00 0.00 0.00 0.00 0.00 0.00 0.00 0.00 0.00 0.00
0.00 0.00 0.00 0.00 0.00 0.00 0.00 0.00 0.00 0.00 0.00 0.00 0.00 0.00 0.00 0.00 0.00 0.00 0.00 0.00 0.00 0.00 0.00 0.00 0.00 0.00 0.00 0.00 0.00 0.00 0.00 0.00 0.00 0.00 0.00 0.00 0.00 0.00 0.00 0.00 0.00 0.00 0.00 0.00 0.00 0.00 0.00 0.00 0.00 0.00 0.00 0.00 0.00 0.00 0.00 0.00 0.00 0.00 0.00 0.00 0.00 0.00 0.00 0.00 0.00 0.00 0.00 0.00 0.00
0.00 0.00 0.00 0.00 0.00 0.00 0.00 0.00 0.00 0.00 0.00 0.00 0.00 0.00 0.00 0.00 0.00 0.00 0.00 0.00 0.00 0.00 0.00 0.00 0.00 0.00 0.00 0.00 0.00 0.00 0.00 0.00 0.00 0.00 0.00 0.00 0.00 0.00 0.00 0.00 0.00 0.00 0.00 0.00 0.00 0.00 0.00 0.00 0.00 0.00 0.00 0.00 0.00 0.00 0.00 0.00 0.00 0.00 0.00 0.00 0.00 0.00 0.00 0.00 0.00 0.00 0.00 0.00 0.00
0.00 0.00 0.00 0.00 0.00 0.00 0.00 0.00 0.00 0.00 0.00 0.00 0.00 0.00 0.00 0.00 0.00 0.00 0.00 0.00 0.00 0.00 0.00 0.00 0.00 0.00 0.00 0.00 0.00 0.00 0.00 0.00 0.00 0.00 0.00 0.00 0.00 0.00 0.00 0.00 0.00 0.00 0.00 0.00 0.00 0.00 0.00 0.00 0.00 0.00 0.00 0.00 0.00 0.00 0.00 0.00 0.00 0.00 0.00 0.00 0.00 0.00 0.00 0.00 0.00 0.00 0.00 0.00 0.00
0.00 0.00 0.00 0.00 0.00 0.00 0.00 0.00 0.00 0.00 0.00 0.00 0.00 0.00 0.00 0.00 0.00 0.00 0.00 0.00 0.00 0.00 0.00 0.00 0.00 0.00 0.00 0.00 0.00 0.00 0.00 0.00 0.00 0.00 0.00 0.00 0.00 0.00 0.00 0.00 0.00 0.00 0.00 0.00 0.00 0.00 0.00 0.00 0.00 0.00 0.00 0.00 0.00 0.00 0.00 0.00 0.00 0.00 0.00 0.00 0.00 0.00 0.00 0.00 0.00 0.00 0.00 0.00 0.00
MSLP
1023.40 1023.44 1023.52 1023.56 1023.60 1023.64 1023.68 1023.72 1023.80 1023.80 1023.80 1023.80 1023.84 1023.80 1023.80 1023.76 1023.80 1023.80 1023.76 1023.76 1023.76 1023.72 1023.68 1023.64 1023.60 1023.60 1023.60 1023.56 1023.56 1023.56 1023.56 1023.52 1023.48 1023.40 1023.40 1023.40 1023.36 1023.28 1023.20 1023.12 1023.12 1023.08 1023.04 1022.96 1022.96 1022.88 1022.84 1022.76 1022.68 1022.56 1022.40 1022.24 1022.12 1021.96 1021.84 1021.80 1021.68 1021.60 1021.52 1021.40 1021.28 1021.16 1021.04 1020.96 1020.88 1020.72 1020.60 1020.52 1020.40
1023.52 1023.56 1023.56 1023.60 1023.68 1023.68 1023.72 1023.80 1023.84 1023.84 1023.84 1023.84 1023.84 1023.84 1023.84 1023.84 1023.84 1023.84 1023.84 1023.84 1023.84 1023.76 1023.68 1023.64 1023.68 1023.68 1023.68 1023.64 1023.64 1023.64 1023.60 1023.56 1023.56 1023.56 1023.52 1023.44 1023.40 1023.36 1023.28 1023.20 1023.16 1023.12 1023.12 1023.04 1022.96 1022.96 1022.92 1022.84 1022.72 1022.60 1022.44 1022.28 1022.16 1022.04 1021.92 1021.84 1021.76 1021.68 1021.56 1021.48 1021.40 1021.24 1021.12 1021.00 1020.92 1020.80 1020.68 1020.56 1020.44
1023.56 1023.64 1023.68 1023.68 1023.76 1023.80 1023.84 1023.84 1023.92 1023.92 1023.92 1023.88 1023.88 1023.84 1023.84 1023.88 1023.88 1023.92 1023.88 1023.88 1023.88 1023.84 1023.76 1023.68 1023.72 1023.76 1023.76 1023.72 1023.68 1023.68 1023.68 1023.64 1023.64 1023.60 1023.56 1023.52 1023.48 1023.40 1023.36 1023.24 1023.24 1023.20 1023.16 1023.12 1023.04 1022.96 1022.96 1022.88 1022.76 1022.64 1022.48 1022.32 1022.20 1022.12 1022.00 1021.88 1021.84 1021.76 1021.68 1021.56 1021.40 1021.28 1021.16 1021.00 1020.92 1020.84 1020.68 1020.60 1020.52
1023.64 1023.68 1023.72 1023.80 1023.84 1023.88 1023.92 1023.96 1023.96 1024.00 1023.96 1023.96 1023.92 1023.88 1023.92 1023.92 1023.92 1023.92 1023.92 1023.92 1023.92 1023.84 1023.80 1023.80 1023.80 1023.80 1023.84 1023.84 1023.76 1023.72 1023.68 1023.68 1023.68 1023.68 1023.64 1023.60 1023.52 1023.44 1023.40 1023.32 1023.24 1023.24 1023.16 1023.12 1023.08 1023.04 1022.96 1022.88 1022.80 1022.68 1022.52 1022.40 1022.32 1022.24 1022.08 1021.96 1021.92 1021.84 1021.72 1021.64 1021.48 1021.36 1021.24 1021.12 1021.04 1020.88 1020.76 1020.64 1020.56
1023.68 1023.72 1023.76 1023.84 1023.88 1023.92 1023.96 1023.96 1023.96 1024.00 1023.96 1023.96 1023.96 1023.96 1023.92 1023.92 1023.92 1023.92 1023.96 1023.96 1023.92 1023.88 1023.88 1023.88 1023.84 1023.84 1023.84 1023.84 1023.84 1023.80 1023.76 1023.72 1023.68 1023.68 1023.68 1023.64 1023.56 1023.48 1023.40 1023.32 1023.28 1023.24 1023.20 1023.16 1023.08 1023.00 1022.92 1022.92 1022.76 1022.64 1022.56 1022.52 1022.32 1022.20 1022.12 1022.12 1022.00 1021.92 1021.80 1021.68 1021.60 1021.48 1021.36 1021.24 1021.12 1020.96 1020.88 1020.80 1020.68
1023.72 1023.80 1023.84 1023.88 1023.92 1023.96 1023.96 1023.96 1023.96 1024.00 1024.00 1024.00 1024.00 1024.00 1023.96 1023.96 1023.96 1023.96 1024.00 1024.04 1023.96 1023.96 1023.92 1023.92 1023.88 1023.88 1023.92 1023.88 1023.84 1023.84 1023.80 1023.76 1023.72 1023.68 1023.68 1023.68 1023.56 1023.52 1023.44 1023.40 1023.28 1023.24 1023.20 1023.16 1023.08 1023.00 1022.96 1022.92 1022.76 1022.64 1022.56 1022.52 1022.40 1022.36 1022.28 1022.20 1022.08 1021.96 1021.84 1021.76 1021.68 1021.56 1021.44 1021.36 1021.20 1021.08 1020.96 1020.84 1020.80
1023.72 1023.80 1023.84 1023.88 1023.92 1023.96 1023.96 1024.00 1024.00 1024.00 1024.04 1024.04 1024.04 1024.08 1024.08 1024.08 1024.08 1024.12 1024.12 1024.12 1024.00 1023.96 1023.96 1023.96 1023.92 1023.92 1023.96 1023.92 1023.88 1023.84 1023.84 1023.80 1023.76 1023.72 1023.68 1023.68 1023.60 1023.56 1023.52 1023.44 1023.40 1023.28 1023.24 1023.16 1023.12 1023.04 1022.96 1022.96 1022.84 1022.72 1022.64 1022.56 1022.44 1022.36 1022.28 1022.24 1022.16 1022.08 1021.96 1021.88 1021.76 1021.64 1021.52 1021.40 1021.32 1021.20 1021.12 1021.00 1020.96
1023.68 1023.76 1023.84 1023.84 1023.88 1023.96 1023.96 1024.00 1024.00 1024.04 1024.08 1024.08 1024.12 1024.12 1024.08 1024.08 1024.12 1024.12 1024.12 1024.12 1024.08 1024.04 1024.00 1023.96 1023.96 1023.96 1023.96 1023.96 1023.92 1023.88 1023.84 1023.84 1023.84 1023.80 1023.76 1023.72 1023.68 1023.60 1023.56 1023.52 1023.44 1023.36 1023.24 1023.20 1023.12 1023.08 1023.00 1022.96 1022.88 1022.80 1022.68 1022.60 1022.48 1022.40 1022.36 1022.32 1022.28 1022.16 1022.08 1021.96 1021.80 1021.68 1021.56 1021.56 1021.48 1021.40 1021.28 1021.12 1020.96
1023.68 1023.76 1023.80 1023.84 1023.84 1023.92 1023.96 1024.00 1024.00 1024.08 1024.12 1024.12 1024.12 1024.12 1024.08 1024.12 1024.12 1024.16 1024.16 1024.16 1024.12 1024.12 1024.04 1024.04 1024.04 1024.00 1023.96 1023.96 1023.96 1023.96 1023.92 1023.88 1023.84 1023.84 1023.80 1023.76 1023.68 1023.64 1023.56 1023.56 1023.48 1023.40 1023.36 1023.24 1023.16 1023.08 1023.00 1022.96 1022.92 1022.84 1022.72 1022.68 1022.56 1022.48 1022.40 1022.36 1022.28 1022.16 1022.04 1021.88 1021.72 1021.64 1021.60 1021.56 1021.56 1021.44 1021.32 1021.16 1020.96
1023.68 1023.72 1023.76 1023.84 1023.84 1023.92 1023.96 1024.00 1024.04 1024.08 1024.12 1024.12 1024.12 1024.08 1024.04 1024.08 1024.12 1024.16 1024.16 1024.16 1024.12 1024.12 1024.08 1024.08 1024.08 1024.04 1024.04 1024.00 1024.00 1023.96 1023.96 1023.92 1023.88 1023.84 1023.80 1023.76 1023.68 1023.68 1023.60 1023.56 1023.48 1023.44 1023.40 1023.32 1023.20 1023.12 1023.04 1022.96 1022.88 1022.84 1022.76 1022.68 1022.64 1022.56 1022.44 1022.36 1022.28 1022.12 1021.96 1021.84 1021.72 1021.68 1021.68 1021.68 1021.56 1021.48 1021.32 1021.12 1020.96
1023.68 1023.72 1023.76 1023.84 1023.88 1023.96 1023.96 1024.04 1024.12 1024.12 1024.12 1024.12 1024.12 1024.08 1024.08 1024.12 1024.12 1024.16 1024.16 1024.16 1024.12 1024.12 1024.12 1024.12 1024.12 1024.08 1024.04 1024.04 1024.00 1023.96 1023.96 1023.96 1023.88 1023.84 1023.80 1023.72 1023.72 1023.68 1023.64 1023.56 1023.48 1023.40 1023.36 1023.24 1023.16 1023.12 1023.04 1022.96 1022.92 1022.84 1022.72 1022.68 1022.64 1022.56 1022.44 1022.36 1022.28 1022.16 1022.12 1022.04 1021.96 1021.84 1021.76 1021.68 1021.60 1021.48 1021.28 1021.12 1020.96
1023.68 1023.72 1023.80 1023.84 1023.88 1023.96 1024.04 1024.12 1024.12 1024.16 1024.16 1024.16 1024.16 1024.16 1024.16 1024.16 1024.20 1024.20 1024.20 1024.20 1024.20 1024.20 1024.16 1024.12 1024.12 1024.08 1024.04 1024.04 1024.00 1023.96 1023.96 1023.92 1023.84 1023.84 1023.76 1023.72 1023.68 1023.68 1023.64 1023.56 1023.48 1023.40 1023.28 1023.20 1023.12 1023.12 1023.04 1023.00 1022.96 1022.84 1022.76 1022.68 1022.60 1022.56 1022.48 1022.40 1022.28 1022.24 1022.16 1022.12 1022.00 1021.92 1021.80 1021.68 1021.56 1021.40 1021.24 1021.12 1021.00
1023.64 1023.72 1023.80 1023.84 1023.88 1023.96 1024.04 1024.12 1024.12 1024.16 1024.16 1024.20 1024.24 1024.24 1024.24 1024.24 1024.24 1024.24 1024.24 1024.24 1024.24 1024.24 1024.20 1024.16 1024.12 1024.08 1024.04 1024.04 1024.00 1023.96 1023.88 1023.88 1023.84 1023.84 1023.76 1023.72 1023.68 1023.68 1023.60 1023.56 1023.44 1023.36 1023.24 1023.20 1023.12 1023.08 1023.04 1022.96 1022.92 1022.84 1022.80 1022.68 1022.56 1022.56 1022.48 1022.40 1022.28 1022.24 1022.16 1022.08 1021.96 1021.84 1021.68 1021.56 1021.40 1021.28 1021.16 1021.08 1020.96
1023.60 1023.68 1023.80 1023.84 1023.88 1023.96 1024.12 1024.12 1024.24 1024.28 1024.24 1024.28 1024.28 1024.28 1024.28 1024.28 1024.28 1024.24 1024.24 1024.24 1024.24 1024.20 1024.16 1024.16 1024.12 1024.08 1024.04 1024.04 1023.96 1023.96 1023.92 1023.88 1023.84 1023.84 1023.80 1023.76 1023.68 1023.68 1023.68 1023.56 1023.44 1023.36 1023.24 1023.16 1023.12 1023.08 1023.00 1022.96 1022.88 1022.84 1022.76 1022.68 1022.60 1022.56 1022.44 1022.40 1022.28 1022.20 1022.12 1021.96 1021.88 1021.76 1021.60 1021.48 1021.36 1021.24 1021.12 1021.00 1020.88
1023.60 1023.68 1023.76 1023.84 1023.92 1024.04 1024.16 1024.20 1024.28 1024.28 1024.32 1024.32 1024.36 1024.36 1024.32 1024.28 1024.28 1024.24 1024.24 1024.28 1024.24 1024.20 1024.16 1024.16 1024.12 1024.12 1024.08 1024.08 1024.00 1023.96 1023.96 1023.92 1023.88 1023.84 1023.84 1023.76 1023.72 1023.68 1023.68 1023.56 1023.48 1023.40 1023.28 1023.16 1023.12 1023.04 1023.00 1022.96 1022.88 1022.84 1022.76 1022.68 1022.60 1022.52 1022.44 1022.40 1022.28 1022.20 1022.12 1021.96 1021.88 1021.80 1021.68 1021.56 1021.44 1021.36 1021.24 1021.08 1020.92
1023.64 1023.72 1023.84 1023.96 1024.00 1024.12 1024.24 1024.28 1024.32 1024.36 1024.40 1024.40 1024.44 1024.40 1024.36 1024.28 1024.28 1024.28 1024.28 1024.32 1024.28 1024.28 1024.24 1024.20 1024.20 1024.16 1024.12 1024.12 1024.08 1024.04 1024.00 1023.96 1023.96 1023.88 1023.84 1023.80 1023.76 1023.68 1023.68 1023.56 1023.52 1023.44 1023.36 1023.24 1023.12 1023.04 1022.96 1022.92 1022.84 1022.76 1022.68 1022.64 1022.56 1022.48 1022.40 1022.40 1022.28 1022.20 1022.12 1022.04 1021.96 1021.84 1021.76 1021.64 1021.52 1021.40 1021.32 1021.24 1021.12
1023.68 1023.80 1023.92 1024.00 1024.08 1024.16 1024.24 1024.32 1024.40 1024.44 1024.48 1024.48 1024.48 1024.44 1024.40 1024.40 1024.36 1024.36 1024.36 1024.36 1024.36 1024.32 1024.28 1024.28 1024.28 1024.28 1024.24 1024.20 1024.16 1024.12 1024.08 1024.00 1023.96 1023.92 1023.84 1023.84 1023.80 1023.72 1023.68 1023.60 1023.52 1023.40 1023.32 1023.16 1023.08 1022.96 1022.92 1022.84 1022.80 1022.68 1022.64 1022.60 1022.56 1022.44 1022.40 1022.32 1022.28 1022.16 1022.12 1022.04 1021.96 1021.84 1021.72 1021.60 1021.56 1021.52 1021.44 1021.40 1021.36
1023.68 1023.84 1023.96 1024.08 1024.12 1024.20 1024.28 1024.40 1024.44 1024.48 1024.52 1024.48 1024.48 1024.48 1024.44 1024.44 1024.40 1024.40 1024.40 1024.40 1024.40 1024.40 1024.36 1024.36 1024.36 1024.36 1024.36 1024.28 1024.24 1024.16 1024.12 1024.04 1023.96 1023.92 1023.88 1023.84 1023.84 1023.72 1023.68 1023.56 1023.48 1023.36 1023.24 1023.12 1022.96 1022.92 1022.84 1022.76 1022.68 1022.64 1022.56 1022.52 1022.44 1022.36 1022.28 1022.24 1022.12 1022.04 1021.96 1021.88 1021.84 1021.76 1021.72 1021.68 1021.64 1021.60 1021.56 1021.52 1021.40
1023.80 1023.92 1024.04 1024.12 1024.20 1024.28 1024.32 1024.40 1024.44 1024.48 1024.52 1024.52 1024.52 1024.48 1024.48 1024.48 1024.48 1024.48 1024.44 1024.40 1024.40 1024.44 1024.44 1024.40 1024.40 1024.40 1024.40 1024.32 1024.28 1024.16 1024.12 1024.04 1023.96 1023.92 1023.88 1023.84 1023.80 1023.68 1023.60 1023.48 1023.36 1023.24 1023.12 1023.00 1022.88 1022.80 1022.68 1022.64 1022.56 1022.52 1022.40 1022.32 1022.28 1022.20 1022.12 1022.08 1021.96 1021.92 1021.84 1021.80 1021.76 1021.76 1021.76 1021.76 1021.68 1021.64 1021.56 1021.48 1021.40
1023.84 1023.96 1024.08 1024.16 1024.28 1024.28 1024.36 1024.40 1024.44 1024.48 1024.52 1024.52 1024.52 1024.52 1024.52 1024.52 1024.52 1024.52 1024.48 1024.48 1024.48 1024.48 1024.48 1024.44 1024.44 1024.40 1024.36 1024.28 1024.24 1024.16 1024.08 1024.00 1023.96 1023.88 1023.84 1023.76 1023.68 1023.56 1023.44 1023.32 1023.20 1023.08 1022.96 1022.84 1022.68 1022.60 1022.52 1022.44 1022.40 1022.32 1022.24 1022.16 1022.12 1022.04 1021.96 1021.92 1021.84 1021.84 1021.76 1021.76 1021.76 1021.72 1021.72 1021.68 1021.60 1021.56 1021.48 1021.40 1021.28
1023.88 1024.00 1024.12 1024.20 1024.28 1024.36 1024.40 1024.40 1024.40 1024.48 1024.52 1024.52 1024.56 1024.56 1024.56 1024.56 1024.56 1024.56 1024.56 1024.52 1024.52 1024.52 1024.48 1024.48 1024.44 1024.40 1024.28 1024.24 1024.16 1024.12 1024.04 1023.96 1023.84 1023.76 1023.68 1023.60 1023.52 1023.36 1023.20 1023.08 1022.96 1022.84 1022.68 1022.60 1022.52 1022.40 1022.32 1022.28 1022.16 1022.08 1022.00 1021.96 1021.92 1021.88 1021.84 1021.80 1021.72 1021.68 1021.68 1021.68 1021.68 1021.60 1021.56 1021.56 1021.44 1021.40 1021.36 1021.24 1021.16
1023.96 1024.08 1024.12 1024.20 1024.28 1024.36 1024.40 1024.40 1024.44 1024.48 1024.52 1024.56 1024.56 1024.56 1024.56 1024.56 1024.56 1024.56 1024.56 1024.56 1024.52 1024.52 1024.52 1024.48 1024.40 1024.32 1024.28 1024.16 1024.08 1024.00 1023.96 1023.84 1023.76 1023.68 1023.60 1023.48 1023.36 1023.20 1023.08 1022.92 1022.80 1022.68 1022.56 1022.44 1022.40 1022.28 1022.16 1022.04 1021.96 1021.92 1021.84 1021.84 1021.80 1021.76 1021.68 1021.64 1021.56 1021.56 1021.56 1021.52 1021.52 1021.44 1021.40 1021.36 1021.28 1021.24 1021.16 1021.12 1021.04
1023.96 1024.08 1024.12 1024.20 1024.28 1024.32 1024.40 1024.40 1024.44 1024.48 1024.52 1024.56 1024.56 1024.60 1024.64 1024.68 1024.64 1024.64 1024.60 1024.56 1024.56 1024.56 1024.52 1024.44 1024.36 1024.28 1024.24 1024.12 1024.04 1023.96 1023.88 1023.80 1023.72 1023.68 1023.60 1023.48 1023.36 1023.20 1023.08 1022.92 1022.80 1022.68 1022.56 1022.40 1022.28 1022.12 1022.00 1021.92 1021.84 1021.80 1021.76 1021.68 1021.68 1021.64 1021.56 1021.52 1021.44 1021.40 1021.40 1021.36 1021.32 1021.28 1021.24 1021.16 1021.12 1021.08 1020.96 1020.92 1020.84
1024.00 1024.12 1024.12 1024.24 1024.28 1024.36 1024.40 1024.40 1024.44 1024.48 1024.56 1024.60 1024.68 1024.68 1024.72 1024.72 1024.72 1024.68 1024.68 1024.64 1024.64 1024.56 1024.52 1024.44 1024.40 1024.28 1024.16 1024.12 1024.04 1023.96 1023.92 1023.84 1023.80 1023.68 1023.56 1023.44 1023.32 1023.20 1023.04 1022.92 1022.76 1022.64 1022.44 1022.28 1022.12 1022.04 1021.96 1021.88 1021.80 1021.72 1021.68 1021.68 1021.64 1021.56 1021.48 1021.40 1021.36 1021.32 1021.28 1021.24 1021.16 1021.08 1021.00 1020.96 1020.96 1020.88 1020.80 1020.72 1020.68
1024.00 1024.08 1024.12 1024.24 1024.28 1024.36 1024.40 1024.44 1024.52 1024.56 1024.64 1024.68 1024.72 1024.76 1024.80 1024.80 1024.76 1024.72 1024.68 1024.68 1024.64 1024.56 1024.52 1024.44 1024.36 1024.28 1024.20 1024.12 1024.04 1023.96 1023.92 1023.84 1023.76 1023.68 1023.56 1023.40 1023.24 1023.12 1023.00 1022.88 1022.76 1022.56 1022.32 1022.16 1022.04 1021.96 1021.92 1021.88 1021.80 1021.68 1021.68 1021.64 1021.56 1021.44 1021.40 1021.28 1021.24 1021.20 1021.16 1021.08 1020.96 1020.92 1020.84 1020.76 1020.68 1020.68 1020.60 1020.56 1020.48
1023.96 1024.12 1024.16 1024.28 1024.32 1024.40 1024.44 1024.52 1024.56 1024.64 1024.68 1024.76 1024.76 1024.76 1024.80 1024.80 1024.80 1024.76 1024.72 1024.68 1024.64 1024.56 1024.48 1024.40 1024.32 1024.24 1024.16 1024.12 1024.04 1023.96 1023.84 1023.80 1023.68 1023.56 1023.44 1023.32 1023.16 1023.08 1022.96 1022.84 1022.68 1022.56 1022.36 1022.20 1022.12 1022.04 1021.96 1021.84 1021.72 1021.68 1021.60 1021.56 1021.44 1021.36 1021.24 1021.16 1021.12 1021.04 1020.96 1020.92 1020.84 1020.76 1020.68 1020.56 1020.44 1020.40 1020.40 1020.40 1020.32
1024.00 1024.12 1024.16 1024.28 1024.36 1024.40 1024.48 1024.56 1024.60 1024.68 1024.68 1024.76 1024.76 1024.80 1024.80 1024.80 1024.80 1024.76 1024.68 1024.64 1024.56 1024.48 1024.40 1024.28 1024.24 1024.16 1024.12 1024.04 1023.96 1023.88 1023.84 1023.68 1023.56 1023.44 1023.36 1023.24 1023.16 1023.04 1022.96 1022.84 1022.72 1022.60 1022.44 1022.28 1022.12 1022.00 1021.92 1021.80 1021.68 1021.60 1021.56 1021.44 1021.36 1021.24 1021.16 1021.08 1020.96 1020.88 1020.84 1020.76 1020.68 1020.60 1020.52 1020.40 1020.28 1020.24 1020.20 1020.12 1020.12
1024.04 1024.12 1024.24 1024.32 1024.40 1024.48 1024.56 1024.60 1024.64 1024.68 1024.68 1024.72 1024.76 1024.80 1024.80 1024.80 1024.76 1024.72 1024.68 1024.60 1024.52 1024.40 1024.32 1024.28 1024.20 1024.12 1024.08 1024.00 1023.96 1023.84 1023.72 1023.60 1023.52 1023.40 1023.28 1023.20 1023.12 1023.04 1022.96 1022.84 1022.72 1022.60 1022.44 1022.28 1022.12 1021.96 1021.84 1021.72 1021.60 1021.52 1021.40 1021.40 1021.28 1021.16 1021.08 1020.96 1020.84 1020.76 1020.68 1020.60 1020.52 1020.40 1020.36 1020.28 1020.16 1020.08 1020.00 1019.96 1019.92
1024.04 1024.12 1024.28 1024.40 1024.44 1024.52 1024.56 1024.64 1024.64 1024.68 1024.68 1024.72 1024.72 1024.76 1024.80 1024.80 1024.72 1024.68 1024.64 1024.56 1024.44 1024.40 1024.32 1024.28 1024.16 1024.08 1024.00 1023.96 1023.88 1023.76 1023.64 1023.56 1023.44 1023.36 1023.24 1023.20 1023.12 1023.04 1022.96 1022.84 1022.68 1022.56 1022.40 1022.20 1022.04 1021.92 1021.80 1021.68 1021.56 1021.44 1021.36 1021.24 1021.20 1021.08 1020.96 1020.84 1020.72 1020.64 1020.56 1020.44 1020.36 1020.28 1020.24 1020.12 1020.04 1019.96 1019.92 1019.84 1019.76
1024.08 1024.20 1024.32 1024.40 1024.48 1024.56 1024.56 1024.60 1024.64 1024.68 1024.68 1024.68 1024.72 1024.76 1024.76 1024.76 1024.68 1024.68 1024.60 1024.52 1024.40 1024.36 1024.28 1024.24 1024.12 1024.08 1024.00 1023.92 1023.84 1023.72 1023.60 1023.52 1023.40 1023.32 1023.24 1023.24 1023.12 1023.00 1022.88 1022.76 1022.68 1022.52 1022.32 1022.16 1022.00 1021.88 1021.72 1021.64 1021.48 1021.40 1021.24 1021.16 1021.08 1020.96 1020.84 1020.76 1020.64 1020.52 1020.40 1020.32 1020.24 1020.12 1020.08 1020.00 1019.92 1019.84 1019.80 1019.72 1019.68
1024.12 1024.28 1024.40 1024.44 1024.48 1024.56 1024.56 1024.64 1024.64 1024.68 1024.68 1024.68 1024.68 1024.68 1024.68 1024.68 1024.68 1024.60 1024.56 1024.48 1024.40 1024.32 1024.24 1024.16 1024.12 1024.04 1023.96 1023.84 1023.76 1023.68 1023.60 1023.52 1023.40 1023.36 1023.28 1023.24 1023.12 1023.00 1022.88 1022.80 1022.64 1022.48 1022.32 1022.16 1021.96 1021.84 1021.68 1021.56 1021.40 1021.28 1021.16 1021.00 1020.96 1020.84 1020.72 1020.60 1020.52 1020.40 1020.28 1020.20 1020.12 1020.04 1019.96 1019.88 1019.84 1019.80 1019.72 1019.64 1019.56
1024.16 1024.28 1024.40 1024.44 1024.48 1024.56 1024.56 1024.60 1024.60 1024.64 1024.68 1024.68 1024.68 1024.68 1024.68 1024.64 1024.60 1024.56 1024.48 1024.44 1024.36 1024.28 1024.24 1024.16 1024.12 1024.04 1023.96 1023.84 1023.76 1023.68 1023.60 1023.52 1023.44 1023.36 1023.24 1023.20 1023.12 1023.00 1022.84 1022.76 1022.60 1022.48 1022.32 1022.12 1021.96 1021.80 1021.68 1021.56 1021.36 1021.20 1021.08 1020.96 1020.84 1020.80 1020.68 1020.56 1020.44 1020.32 1020.20 1020.12 1020.04 1019.96 1019.92 1019.84 1019.76 1019.68 1019.64 1019.56 1019.44
1024.20 1024.28 1024.36 1024.40 1024.44 1024.52 1024.56 1024.60 1024.60 1024.60 1024.60 1024.60 1024.60 1024.60 1024.60 1024.56 1024.52 1024.44 1024.40 1024.40 1024.32 1024.28 1024.24 1024.16 1024.08 1024.00 1023.96 1023.88 1023.80 1023.68 1023.60 1023.56 1023.44 1023.36 1023.24 1023.12 1023.04 1022.96 1022.84 1022.72 1022.60 1022.44 1022.28 1022.12 1021.92 1021.80 1021.64 1021.52 1021.36 1021.20 1021.04 1020.88 1020.84 1020.76 1020.64 1020.48 1020.40 1020.28 1020.16 1020.08 1019.96 1019.92 1019.84 1019.76 1019.68 1019.60 1019.56 1019.44 1019.40
1024.20 1024.28 1024.36 1024.40 1024.44 1024.52 1024.56 1024.56 1024.56 1024.56 1024.56 1024.56 1024.56 1024.56 1024.52 1024.48 1024.52 1024.48 1024.40 1024.36 1024.28 1024.24 1024.20 1024.12 1024.04 1023.96 1023.92 1023.84 1023.76 1023.68 1023.60 1023.48 1023.40 1023.28 1023.20 1023.12 1023.00 1022.96 1022.84 1022.76 1022.60 1022.44 1022.28 1022.12 1021.96 1021.80 1021.64 1021.52 1021.32 1021.12 1020.96 1020.88 1020.80 1020.72 1020.60 1020.48 1020.36 1020.28 1020.16 1020.08 1019.96 1019.88 1019.84 1019.76 1019.68 1019.60 1019.56 1019.44 1019.40
1024.16 1024.28 1024.32 1024.36 1024.40 1024.44 1024.44 1024.48 1024.52 1024.52 1024.52 1024.52 1024.48 1024.48 1024.44 1024.48 1024.44 1024.44 1024.40 1024.28 1024.28 1024.24 1024.12 1024.08 1024.00 1023.96 1023.88 1023.80 1023.72 1023.68 1023.56 1023.40 1023.36 1023.24 1023.12 1023.04 1022.96 1022.92 1022.84 1022.76 1022.60 1022.44 1022.28 1022.12 1021.96 1021.84 1021.68 1021.52 1021.32 1021.12 1021.00 1020.92 1020.84 1020.76 1020.60 1020.48 1020.36 1020.28 1020.16 1020.08 1019.96 1019.92 1019.84 1019.80 1019.72 1019.64 1019.56 1019.52 1019.40
1024.16 1024.24 1024.28 1024.32 1024.40 1024.40 1024.40 1024.40 1024.40 1024.40 1024.40 1024.40 1024.40 1024.44 1024.44 1024.48 1024.44 1024.40 1024.36 1024.28 1024.28 1024.24 1024.16 1024.12 1024.00 1023.96 1023.88 1023.80 1023.68 1023.60 1023.52 1023.40 1023.32 1023.24 1023.12 1023.04 1022.96 1022.92 1022.84 1022.76 1022.64 1022.52 1022.36 1022.16 1022.00 1021.84 1021.68 1021.52 1021.36 1021.16 1021.04 1020.96 1020.92 1020.80 1020.68 1020.56 1020.44 1020.32 1020.24 1020.12 1020.04 1019.96 1019.92 1019.84 1019.76 1019.68 1019.60 1019.56 1019.48
1024.12 1024.16 1024.24 1024.28 1024.32 1024.32 1024.32 1024.32 1024.36 1024.40 1024.40 1024.40 1024.40 1024.44 1024.48 1024.44 1024.44 1024.40 1024.32 1024.28 1024.28 1024.28 1024.20 1024.08 1023.96 1023.92 1023.84 1023.80 1023.68 1023.56 1023.48 1023.40 1023.28 1023.24 1023.12 1023.04 1022.96 1022.92 1022.84 1022.80 1022.68 1022.56 1022.40 1022.24 1022.04 1021.84 1021.68 1021.56 1021.40 1021.24 1021.12 1021.08 1020.96 1020.84 1020.72 1020.64 1020.56 1020.44 1020.36 1020.24 1020.12 1020.08 1020.00 1019.96 1019.84 1019.76 1019.68 1019.60 1019.56
1024.08 1024.12 1024.16 1024.28 1024.28 1024.28 1024.32 1024.36 1024.40 1024.40 1024.40 1024.44 1024.44 1024.40 1024.40 1024.40 1024.40 1024.36 1024.28 1024.24 1024.24 1024.20 1024.16 1024.08 1024.00 1023.92 1023.80 1023.72 1023.64 1023.52 1023.40 1023.32 1023.28 1023.24 1023.16 1023.12 1023.04 1022.96 1022.88 1022.84 1022.72 1022.64 1022.48 1022.28 1022.08 1021.92 1021.76 1021.60 1021.44 1021.32 1021.24 1021.20 1021.08 1020.96 1020.84 1020.72 1020.64 1020.56 1020.44 1020.32 1020.24 1020.16 1020.12 1020.04 1019.92 1019.84 1019.72 1019.64 1019.52
1024.04 1024.08 1024.12 1024.24 1024.28 1024.28 1024.32 1024.32 1024.40 1024.40 1024.40 1024.40 1024.44 1024.40 1024.40 1024.40 1024.36 1024.32 1024.28 1024.20 1024.16 1024.16 1024.12 1024.08 1023.96 1023.84 1023.76 1023.68 1023.56 1023.48 1023.40 1023.32 1023.28 1023.24 1023.20 1023.16 1023.08 1022.96 1022.88 1022.88 1022.80 1022.68 1022.56 1022.32 1022.12 1021.96 1021.84 1021.68 1021.56 1021.40 1021.32 1021.28 1021.20 1021.12 1021.00 1020.84 1020.76 1020.64 1020.56 1020.44 1020.36 1020.28 1020.20 1020.12 1019.96 1019.84 1019.68 1019.56 1019.40
1024.00 1024.04 1024.12 1024.16 1024.20 1024.24 1024.28 1024.32 1024.36 1024.40 1024.40 1024.40 1024.40 1024.40 1024.40 1024.36 1024.28 1024.24 1024.20 1024.16 1024.12 1024.12 1024.08 1024.00 1023.92 1023.84 1023.68 1023.64 1023.56 1023.52 1023.44 1023.40 1023.32 1023.24 1023.24 1023.20 1023.08 1022.96 1022.88 1022.92 1022.84 1022.72 1022.56 1022.40 1022.20 1022.04 1021.88 1021.80 1021.64 1021.52 1021.40 1021.40 1021.32 1021.24 1021.12 1020.96 1020.84 1020.72 1020.64 1020.56 1020.40 1020.28 1020.16 1020.04 1019.96 1019.80 1019.60 1019.44 1019.28
1023.96 1024.00 1024.08 1024.12 1024.12 1024.16 1024.24 1024.28 1024.32 1024.32 1024.32 1024.36 1024.36 1024.36 1024.32 1024.28 1024.24 1024.20 1024.16 1024.16 1024.12 1024.04 1024.00 1023.96 1023.88 1023.80 1023.68 1023.64 1023.56 1023.56 1023.52 1023.44 1023.40 1023.32 1023.24 1023.20 1023.12 1023.00 1022.96 1022.92 1022.84 1022.76 1022.64 1022.48 1022.28 1022.12 1021.96 1021.84 1021.72 1021.60 1021.56 1021.52 1021.40 1021.32 1021.24 1021.08 1020.96 1020.80 1020.68 1020.56 1020.52 1020.40 1020.20 1019.96 1019.80 1019.68 1019.56 1019.40 1019.32
Thickness
5450 5449 5447 5446 5446 5445 5444 5443 5442 5442 5442 5442 5441 5441 5442 5442 5442 5442 5442 5442 5442 5442 5443 5443 5443 5444 5444 5444 5445 5445 5445 5445 5446 5446 5447 5447 5447 5448 5448 5449 5449 5450 5450 5451 5451 5451 5452 5453 5453 5454 5455 5456 5457 5458 5459 5459 5460 5460 5461 5462 5463 5465 5465 5466 5467 5468 5469 5470 5472
5446 5445 5444 5443 5442 5442 5441 5440 5440 5439 5439 5439 5439 5439 5439 5439 5439 5439 5439 5439 5439 5440 5441 5441 5441 5441 5441 5441 5442 5442 5442 5443 5443 5443 5443 5443 5444 5445 5445 5446 5446 5447 5447 5447 5448 5448 5448 5449 5450 5451 5452 5454 5454 5455 5456 5456 5457 5458 5458 5459 5460 5461 5462 5463 5463 5464 5465 5467 5468
5442 5441 5441 5440 5439 5438 5437 5437 5436 5436 5436 5436 5436 5436 5436 5437 5436 5436 5436 5437 5437 5437 5438 5438 5438 5438 5438 5438 5438 5439 5439 5439 5440 5440 5440 5440 5441 5442 5443 5443 5443 5444 5444 5444 5445 5446 5446 5446 5447 5448 5449 5450 5451 5452 5452 5453 5454 5454 5455 5456 5456 5457 5458 5459 5460 5461 5462 5463 5464
5439 5438 5437 5436 5435 5434 5434 5434 5433 5433 5433 5433 5433 5434 5434 5434 5434 5435 5435 5435 5435 5435 5436 5436 5436 5436 5436 5436 5436 5436 5436 5436 5437 5437 5437 5438 5439 5439 5440 5440 5441 5441 5442 5442 5442 5443 5443 5444 5444 5445 5446 5447 5447 5448 5449 5450 5450 5451 5451 5452 5453 5454 5455 5456 5456 5457 5459 5459 5460
5436 5435 5434 5433 5432 5431 5431 5431 5430 5430 5431 5431 5431 5431 5431 5432 5432 5432 5432 5432 5432 5432 5432 5433 5433 5433 5433 5433 5433 5433 5434 5434 5434 5435 5435 5435 5436 5436 5437 5438 5438 5438 5439 5439 5440 5440 5441 5441 5441 5442 5443 5443 5444 5445 5446 5446 5447 5447 5448 5449 5450 5450 5451 5452 5453 5454 5455 5456 5457
5433 5431 5431 5430 5429 5429 5428 5428 5428 5428 5428 5428 5428 5428 5428 5429 5429 5429 5429 5429 5429 5430 5430 5431 5431 5431 5431 5431 5431 5431 5431 5431 5431 5432 5432 5433 5433 5434 5434 5435 5435 5436 5436 5436 5437 5437 5438 5438 5438 5439 5440 5440 5440 5441 5441 5442 5443 5444 5444 5445 5445 5446 5447 5448 5449 5450 5451 5452 5452
5430 5429 5428 5428 5427 5426 5426 5425 5425 5425 5425 5425 5425 5425 5425 5425 5426 5425 5425 5425 5426 5427 5427 5427 5428 5427 5428 5428 5428 5428 5428 5429 5429 5429 5430 5430 5430 5431 5431 5431 5432 5432 5433 5433 5434 5434 5434 5435 5435 5436 5436 5436 5437 5438 5438 5438 5439 5439 5440 5441 5441 5442 5443 5444 5444 5446 5446 5447 5448
5427 5426 5426 5425 5425 5424 5423 5423 5423 5423 5422 5422 5422 5423 5423 5423 5423 5422 5423 5422 5423 5424 5424 5424 5424 5424 5425 5425 5425 5425 5426 5426 5426 5426 5427 5427 5428 5428 5428 5429 5429 5429 5430 5430 5431 5431 5431 5431 5432 5432 5433 5433 5434 5434 5435 5435 5435 5435 5436 5437 5438 5439 5440 5440 5440 5441 5442 5443 5444
5424 5424 5423 5422 5422 5421 5421 5420 5420 5420 5419 5419 5419 5420 5420 5420 5420 5419 5419 5419 5419 5420 5421 5421 5421 5421 5422 5422 5422 5422 5423 5423 5423 5423 5424 5424 5424 5425 5425 5426 5426 5427 5427 5428 5427 5428 5428 5428 5429 5429 5429 5430 5430 5431 5430 5431 5432 5432 5433 5434 5436 5436 5436 5436 5437 5437 5438 5439 5440
5421 5421 5421 5420 5419 5419 5419 5418 5417 5417 5416 5416 5417 5417 5417 5417 5417 5416 5416 5417 5417 5417 5418 5418 5418 5418 5419 5419 5419 5419 5420 5420 5420 5421 5421 5421 5421 5422 5422 5423 5424 5424 5424 5425 5425 5426 5426 5426 5426 5426 5427 5427 5427 5427 5428 5429 5429 5430 5430 5431 5432 5432 5432 5433 5433 5433 5435 5436 5438
5419 5418 5418 5418 5416 5416 5415 5414 5414 5414 5413 5413 5414 5414 5414 5414 5414 5414 5414 5414 5414 5414 5414 5415 5415 5415 5415 5416 5416 5417 5417 5417 5417 5418 5418 5418 5418 5419 5420 5420 5421 5422 5422 5423 5423 5423 5423 5423 5424 5424 5424 5424 5424 5424 5425 5426 5426 5427 5427 5427 5427 5428 5429 5429 5430 5431 5432 5433 5434
5416 5416 5415 5415 5414 5413 5412 5411 5411 5411 5410 5410 5410 5410 5410 5410 5410 5410 5411 5411 5411 5411 5411 5411 5412 5412 5413 5413 5413 5414 5414 5415 5415 5415 5415 5416 5417 5417 5417 5418 5418 5419 5419 5420 5421 5421 5420 5420 5421 5421 5421 5421 5421 5422 5422 5423 5423 5423 5424 5424 5425 5425 5426 5427 5427 5428 5429 5430 5431
5414 5413 5412 5412 5411 5410 5409 5408 5408 5408 5408 5407 5407 5407 5407 5407 5407 5407 5407 5407 5407 5407 5408 5408 5409 5410 5410 5410 5411 5411 5411 5412 5412 5413 5413 5413 5413 5414 5414 5415 5415 5416 5417 5417 5418 5418 5418 5418 5418 5418 5418 5419 5419 5419 5419 5420 5420 5421 5421 5422 5422 5423 5424 5425 5426 5427 5427 5428 5429
5411 5410 5409 5409 5408 5408 5406 5405 5405 5404 5404 5404 5403 5403 5403 5403 5404 5404 5404 5404 5404 5405 5405 5405 5406 5406 5407 5407 5407 5408 5409 5409 5409 5409 5410 5410 5411 5411 5411 5412 5413 5414 5414 5415 5415 5415 5415 5415 5415 5415 5415 5416 5416 5416 5417 5417 5417 5418 5418 5419 5420 5421 5422 5422 5423 5424 5425 5426 5426
5409 5407 5407 5406 5405 5404 5403 5402 5401 5401 5401 5400 5400 5400 5400 5400 5400 5401 5401 5401 5401 5401 5402 5402 5402 5403 5403 5404 5404 5404 5405 5405 5406 5406 5406 5407 5408 5408 5408 5409 5410 5410 5411 5412 5412 5412 5412 5412 5412 5413 5412 5413 5414 5413 5414 5414 5415 5415 5416 5417 5417 5418 5418 5419 5419 5420 5421 5422 5423
5405 5404 5403 5402 5402 5400 5400 5399 5398 5397 5397 5396 5396 5396 5397 5397 5397 5397 5397 5397 5398 5398 5398 5398 5399 5399 5399 5400 5400 5401 5401 5402 5402 5403 5403 5404 5405 5405 5405 5406 5406 5407 5408 5408 5409 5409 5409 5410 5410 5410 5410 5410 5410 5411 5411 5411 5412 5412 5413 5413 5414 5415 5415 5415 5416 5417 5418 5418 5419
5403 5401 5400 5399 5398 5398 5397 5395 5395 5393 5393 5393 5393 5393 5393 5393 5393 5394 5394 5394 5394 5394 5395 5395 5395 5395 5396 5396 5397 5397 5398 5399 5399 5400 5400 5401 5401 5402 5402 5403 5403 5404 5405 5405 5406 5406 5407 5407 5407 5407 5408 5408 5408 5408 5408 5409 5409 5410 5410 5411 5411 5412 5412 5413 5414 5414 5414 5414 5414
5399 5398 5396 5396 5395 5394 5392 5392 5391 5390 5390 5390 5389 5389 5389 5389 5390 5390 5390 5390 5391 5391 5391 5391 5391 5391 5392 5393 5393 5394 5395 5395 5396 5397 5397 5397 5398 5398 5399 5400 5400 5401 5402 5403 5403 5403 5404 5404 5405 5405 5405 5406 5406 5406 5407 5407 5407 5408 5408 5409 5410 5410 5410 5410 5410 5410 5410 5410 5411
5396 5394 5393 5392 5391 5390 5389 5388 5388 5387 5387 5387 5386 5386 5386 5386 5386 5386 5387 5387 5387 5387 5387 5388 5388 5388 5389 5389 5390 5391 5391 5392 5393 5393 5394 5394 5395 5395 5396 5397 5398 5399 5399 5400 5401 5401 5401 5402 5403 5403 5403 5404 5404 5405 5405 5405 5406 5406 5407 5407 5407 5407 5407 5406 5407 5407 5408 5408 5409
5392 5391 5390 5389 5388 5387 5386 5385 5385 5384 5384 5383 5383 5383 5383 5383 5383 5383 5383 5383 5383 5383 5383 5384 5384 5385 5386 5386 5387 5387 5389 5389 5390 5390 5391 5392 5392 5393 5394 5395 5396 5397 5398 5398 5399 5400 5400 5400 5401 5401 5402 5402 5402 5403 5403 5403 5404 5404 5404 5404 5404 5404 5404 5404 5405 5405 5406 5406 5407
5389 5388 5387 5386 5385 5383 5383 5383 5382 5381 5380 5380 5380 5380 5379 5379 5379 5379 5379 5380 5380 5380 5380 5381 5382 5382 5383 5384 5384 5385 5385 5386 5387 5387 5388 5389 5390 5391 5392 5393 5394 5395 5396 5396 5397 5398 5398 5399 5399 5400 5400 5401 5401 5401 5401 5401 5402 5402 5402 5402 5402 5402 5403 5403 5403 5404 5404 5405 5405
5386 5385 5384 5383 5382 5380 5380 5379 5378 5378 5377 5377 5377 5376 5376 5376 5376 5376 5376 5376 5377 5377 5377 5378 5378 5380 5380 5380 5382 5382 5383 5383 5384 5385 5386 5387 5387 5389 5390 5391 5392 5392 5393 5394 5394 5395 5396 5397 5397 5398 5398 5398 5398 5399 5399 5399 5400 5400 5400 5400 5400 5400 5400 5401 5401 5402 5402 5403 5403
5383 5382 5381 5379 5379 5378 5377 5376 5376 5375 5374 5373 5373 5372 5372 5372 5372 5372 5372 5373 5373 5373 5374 5375 5376 5376 5377 5378 5379 5379 5380 5381 5381 5382 5383 5383 5384 5385 5386 5387 5388 5389 5390 5391 5392 5393 5394 5395 5395 5396 5396 5396 5396 5397 5397 5398 5398 5398 5398 5399 5398 5399 5399 5399 5400 5400 5401 5401 5402
5380 5379 5378 5377 5375 5374 5374 5373 5373 5372 5371 5370 5370 5369 5368 5368 5368 5369 5369 5369 5370 5370 5371 5371 5373 5374 5374 5375 5376 5376 5377 5377 5378 5379 5379 5380 5381 5382 5383 5384 5385 5386 5387 5388 5390 5391 5391 5392 5392 5393 5394 5394 5394 5395 5395 5396 5396 5396 5396 5396 5397 5397 5398 5398 5399 5399 5399 5400 5400
5377 5376 5375 5374 5373 5372 5370 5370 5369 5368 5367 5367 5365 5365 5365 5365 5365 5365 5366 5366 5366 5367 5368 5368 5370 5370 5371 5371 5372 5373 5373 5374 5375 5375 5376 5378 5378 5379 5380 5381 5382 5383 5385 5386 5386 5388 5388 5388 5389 5390 5391 5391 5392 5393 5393 5394 5394 5394 5394 5395 5396 5395 5396 5397 5397 5397 5398 5398 5398
5375 5373 5372 5371 5370 5368 5368 5367 5365 5365 5364 5363 5362 5362 5362 5361 5361 5362 5362 5363 5363 5364 5365 5366 5367 5368 5368 5368 5369 5370 5371 5371 5372 5372 5373 5374 5376 5376 5377 5378 5379 5380 5381 5382 5383 5384 5384 5386 5386 5387 5388 5388 5390 5391 5391 5391 5392 5392 5393 5393 5393 5394 5395 5395 5396 5396 5396 5396 5396
5372 5370 5369 5368 5367 5366 5364 5363 5363 5361 5361 5360 5360 5359 5359 5358 5359 5359 5359 5360 5360 5361 5362 5363 5364 5365 5365 5366 5366 5367 5368 5369 5370 5370 5371 5371 5372 5373 5374 5375 5376 5376 5377 5379 5380 5381 5381 5383 5384 5384 5385 5386 5387 5388 5389 5389 5390 5390 5391 5391 5392 5392 5393 5394 5394 5394 5395 5395 5395
5369 5367 5366 5365 5363 5362 5361 5360 5359 5359 5358 5357 5357 5356 5356 5356 5355 5356 5357 5357 5358 5359 5360 5360 5361 5362 5362 5363 5363 5364 5365 5366 5367 5368 5368 5369 5369 5370 5370 5371 5372 5373 5374 5375 5377 5378 5379 5380 5381 5381 5382 5384 5384 5385 5386 5387 5388 5388 5388 5389 5390 5390 5391 5391 5392 5392 5393 5393 5393
5366 5365 5363 5362 5360 5359 5358 5357 5357 5356 5355 5355 5354 5354 5353 5353 5353 5353 5353 5354 5355 5356 5356 5358 5358 5359 5359 5360 5361 5362 5362 5363 5364 5365 5365 5366 5367 5367 5368 5369 5369 5371 5372 5373 5374 5375 5376 5377 5378 5379 5380 5381 5382 5383 5384 5385 5385 5386 5386 5387 5387 5388 5388 5389 5390 5390 5390 5391 5390
5363 5362 5360 5359 5358 5357 5356 5355 5354 5353 5353 5352 5351 5351 5351 5351 5351 5350 5351 5352 5352 5353 5354 5355 5356 5356 5356 5357 5358 5359 5360 5361 5362 5362 5362 5363 5363 5364 5365 5366 5366 5367 5369 5370 5371 5373 5374 5374 5375 5376 5377 5378 5379 5380 5381 5382 5382 5383 5384 5384 5385 5386 5386 5387 5387 5387 5388 5388 5389
5361 5359 5358 5357 5356 5354 5354 5352 5351 5351 5350 5350 5349 5349 5348 5348 5348 5349 5349 5350 5350 5351 5352 5352 5352 5353 5354 5355 5355 5356 5357 5358 5358 5359 5359 5359 5360 5361 5362 5363 5364 5365 5366 5367 5368 5369 5370 5372 5373 5373 5374 5376 5377 5377 5378 5379 5380 5381 5381 5382 5383 5383 5384 5384 5384 5385 5385 5385 5386
5357 5356 5355 5354 5353 5352 5351 5350 5349 5348 5348 5347 5347 5346 5346 5346 5346 5347 5347 5347 5347 5348 5348 5349 5350 5350 5351 5352 5353 5353 5354 5355 5355 5355 5356 5357 5357 5358 5359 5360 5361 5362 5363 5365 5366 5367 5368 5369 5370 5371 5372 5373 5374 5375 5375 5376 5377 5378 5379 5379 5380 5380 5380 5381 5381 5381 5382 5382 5383
5355 5353 5352 5351 5350 5349 5348 5348 5347 5346 5346 5345 5345 5344 5344 5344 5345 5344 5344 5344 5345 5345 5346 5346 5347 5347 5348 5349 5350 5351 5351 5352 5352 5353 5354 5354 5355 5356 5356 5357 5358 5359 5360 5361 5362 5364 5364 5366 5367 5368 5369 5370 5371 5372 5373 5374 5374 5375 5376 5376 5376 5377 5377 5377 5378 5379 5379 5379 5380
5352 5351 5350 5349 5348 5347 5346 5345 5345 5344 5343 5343 5343 5343 5342 5342 5342 5342 5342 5343 5343 5343 5343 5344 5345 5345 5346 5346 5347 5348 5348 5349 5350 5350 5351 5352 5352 5352 5353 5354 5354 5356 5357 5358 5359 5360 5361 5363 5364 5365 5366 5367 5368 5368 5369 5370 5371 5372 5372 5372 5373 5373 5374 5374 5374 5375 5375 5376 5376
5350 5348 5348 5346 5345 5345 5344 5343 5342 5342 5341 5341 5341 5341 5340 5340 5340 5339 5340 5340 5340 5341 5341 5342 5342 5343 5343 5344 5344 5345 5346 5346 5347 5348 5349 5349 5350 5350 5350 5350 5351 5353 5354 5355 5356 5357 5358 5359 5361 5362 5363 5363 5364 5364 5365 5366 5367 5367 5368 5368 5369 5369 5370 5369 5370 5370 5371 5371 5372
5347 5346 5345 5344 5343 5342 5341 5341 5340 5340 5339 5339 5339 5338 5338 5337 5337 5337 5337 5338 5338 5338 5338 5339 5339 5340 5340 5341 5342 5343 5343 5344 5344 5345 5346 5346 5346 5347 5347 5347 5348 5349 5350 5351 5352 5353 5354 5356 5357 5358 5359 5360 5360 5361 5362 5362 5363 5363 5363 5364 5365 5365 5365 5365 5366 5366 5366 5367 5367
5344 5343 5343 5341 5341 5340 5340 5339 5338 5338 5337 5336 5336 5336 5335 5334 5335 5335 5335 5336 5335 5335 5336 5337 5337 5338 5338 5339 5339 5340 5340 5341 5342 5342 5343 5343 5343 5343 5344 5344 5345 5345 5346 5348 5349 5350 5351 5352 5353 5354 5355 5355 5356 5357 5357 5358 5358 5359 5360 5360 5360 5361 5361 5361 5361 5361 5362 5362 5363
5342 5341 5340 5339 5338 5337 5336 5336 5335 5335 5334 5333 5333 5332 5332 5332 5332 5332 5333 5333 5332 5333 5333 5334 5335 5335 5336 5336 5337 5337 5338 5339 5339 5339 5339 5340 5340 5340 5341 5341 5342 5342 5343 5344 5344 5346 5347 5348 5349 5350 5350 5351 5351 5352 5353 5354 5354 5355 5355 5355 5356 5356 5356 5357 5357 5358 5358 5358 5359
5340 5339 5338 5336 5336 5335 5334 5333 5332 5332 5331 5331 5330 5330 5330 5330 5330 5330 5330 5330 5330 5331 5331 5331 5332 5333 5333 5334 5334 5335 5335 5336 5336 5336 5336 5336 5337 5338 5338 5338 5338 5338 5339 5340 5341 5342 5343 5344 5345 5346 5346 5346 5346 5347 5348 5349 5350 5350 5351 5351 5352 5352 5353 5352 5353 5354 5355 5355 5356
5337 5336 5335 5334 5333 5333 5331 5331 5330 5329 5328 5328 5327 5327 5327 5327 5327 5328 5328 5328 5328 5328 5328 5329 5329 5330 5331 5331 5331 5332 5332 5332 5333 5333 5333 5333 5334 5334 5335 5334 5334 5335 5335 5336 5337 5338 5339 5340 5340 5341 5341 5342 5342 5342 5343 5344 5345 5346 5347 5347 5347 5348 5349 5349 5350 5351 5352 5352 5353
5335 5334 5333 5332 5331 5330 5329 5328 5327 5326 5326 5326 5325 5325 5325 5325 5325 5325 5325 5325 5325 5326 5326 5326 5327 5327 5328 5328 5328 5328 5329 5329 5329 5329 5329 5329 5330 5330 5331 5331 5331 5331 5332 5332 5333 5334 5335 5335 5336 5337 5337 5337 5337 5338 5339 5340 5341 5342 5342 5343 5344 5345 5346 5347 5347 5348 5348 5349 5350